This is the latest recevied weather packets stored in our database for station/object KG4LKY-5. If no packets are shown the sender has not sent any weather packets the latest 10 day(s).
| Time | Temp. | Humidity | Pressure | Rain* | Wind** | Luminosity | Snow |
|---|---|---|---|---|---|---|---|
| 1777550627 | 9.44° C | 100% | 1016.1 hPa | 0 mm | - | - | - |
| 1777550326 | 10.56° C | 100% | 1016.2 hPa | 0 mm | - | - | - |
| 1777550028 | 10° C | 100% | 1016 hPa | 0 mm | - | - | - |
| 1777549425 | 10° C | 100% | 1015.9 hPa | 0 mm | - | - | - |
| 1777548825 | 9.44° C | 100% | 1015.8 hPa | 0 mm | - | - | - |
| 1777548224 | 9.44° C | 100% | 1015.7 hPa | 0 mm | - | - | - |
| 1777547924 | 9.44° C | 100% | 1015.4 hPa | 0 mm | - | - | - |
| 1777547323 | 9.44° C | 100% | 1015.6 hPa | 0 mm | - | - | - |
| 1777547023 | 9.44° C | 100% | 1015.4 hPa | 0 mm | - | - | - |
| 1777546723 | 9.44° C | 100% | 1015.4 hPa | 0 mm | - | - | - |
| 1777546423 | 8.89° C | 100% | 1015.3 hPa | 0 mm | - | - | - |
| 1777546122 | 10° C | 100% | 1015.3 hPa | 0 mm | - | - | - |
| 1777545822 | 10° C | 100% | 1015.2 hPa | 0 mm | - | - | - |
| 1777545521 | 9.44° C | 100% | 1015.3 hPa | 0 mm | - | - | - |
| 1777545221 | 9.44° C | 100% | 1015.3 hPa | 0 mm | - | - | - |
| 1777544921 | 8.89° C | 100% | 1015.2 hPa | 0 mm | - | - | - |
| 1777544620 | 10° C | 100% | 1015.2 hPa | 0 mm | - | - | - |
| 1777544320 | 10° C | 100% | 1015.1 hPa | 0 mm | - | - | - |
| 1777543719 | 10° C | 100% | 1015 hPa | 0 mm | - | - | - |
| 1777543419 | 10° C | 100% | 1014.9 hPa | 0 mm | - | - | - |
| 1777543119 | 9.44° C | 100% | 1014.8 hPa | 0 mm | - | - | - |
| 1777542818 | 10° C | 100% | 1014.7 hPa | 0 mm | - | - | - |
| 1777542518 | 10° C | 100% | 1014.7 hPa | 0 mm | - | - | - |
| 1777542218 | 10° C | 100% | 1014.5 hPa | 0 mm | - | - | - |
| 1777541918 | 10° C | 100% | 1014.5 hPa | 0 mm | - | - | - |
* Rain since midnight (hover to see other rain measurements)
** Current wind speed in m/s (hover to see current wind gust speed)